Location: McMath-Hulbert Observatory
(42.6964°N, 83.3187°W)
Time: 18:00:27
(UTC-04:00)

Daily predictions for brighter satellites

Satellite Brightness Start Highest point End
(mag) Time Altitude Azimuth Time Altitude Azimuth Time Altitude Azimuth
ATLAS CENTAUR R/B 3.6 19:26:12 10° SSW 19:30:47 58° ESE 19:44:37 10° NE
OAO 3 Rocket 4.4 19:37:19 10° WSW 19:41:30 32° S 19:45:45 10° ESE
Cosmos 1758 4.0 19:40:40 10° SSE 19:44:24 35° E 19:48:09 10° NNE
Cosmos 1464 Rocket 4.0 19:39:09 10° S 19:45:16 61° E 19:51:21 10° NNE
Cosmos 2034 Rocket 4.3 19:39:37 10° SSE 19:45:32 46° E 19:51:32 10° NNE
SL-16 R/B 2.6 19:42:57 10° SSW 19:48:38 71° WNW 19:54:21 10° NNE
Cosmos 1378 3.2 19:44:56 10° N 19:48:41 84° W 19:52:24 10° S
Cosmos 1408 Rocket 3.6 19:45:01 10° N 19:49:18 56° E 19:53:32 10° SSE
SKYMED 2 3.6 19:45:52 10° NNE 19:50:14 87° WNW 19:54:34 10° SSW
Meteor 1-21 Rocket 4.4 19:49:26 10° N 19:54:49 48° ENE 20:00:08 10° SSE
Cosmos 1766 3.6 19:52:49 10° SSW 19:56:46 73° W 20:00:47 10° N
CZ-4C R/B 4.1 19:55:51 10° W 20:00:37 29° NW 20:05:57 10° NNE
Spot 1 4.4 19:56:20 10° SE 20:00:46 47° ENE 20:05:00 10° N
Helios 1A 3.7 19:57:25 10° SE 20:01:13 34° ENE 20:05:03 10° N
IDEFIX/ARIANE 42P 4.5 19:57:41 10° SSW 20:02:27 35° W 20:07:15 10° NNW
NOSS 3-2 (A) 4.1 19:59:53 10° SW 20:05:55 62° NW 20:12:35 10° NNE
Meteor 1-28 Rocket 3.1 20:03:58 10° NNE 20:07:41 68° E 20:11:22 10° S
Meteor 1-29 3.9 20:06:16 10° NE 20:09:18 27° E 20:12:19 10° SSE
GPS 2-04 Rocket1 4.0 20:10:29 10° SW 20:13:13 22° S 20:15:05 15° SE
NOAA 12 4.1 20:11:47 10° SSE 20:17:02 87° WSW 20:22:23 10° NNW
ASTEX 1 4.0 20:13:00 10° NNE 20:17:23 32° E 20:21:43 10° SSE
H-2A R/B 3.9 20:17:06 19° ESE 20:18:39 24° ENE 20:21:48 10° NNE
Cosmos 1943 Rocket 3.6 20:14:49 10° N 20:18:56 20° NE 20:21:11 16° E
Cosmos 1452 Rocket 4.0 20:14:56 10° NNW 20:20:08 63° WSW 20:25:17 10° S
Cosmos 1743 Rocket 3.6 20:15:44 10° N 20:20:08 58° E 20:24:27 10° SSE
Resurs 1-3 3.8 20:17:34 10° SSE 20:21:49 51° ENE 20:26:05 10° N
Cosmos 1805 3.3 20:18:27 10° S 20:22:23 82° W 20:26:21 10° N
ALOS 2.7 20:20:26 10° SE 20:24:47 41° ENE 20:29:10 10° N
Cosmos 2369 Rocket 2.5 20:21:29 10° NNW 20:26:57 47° ENE 20:31:02 17° SE
Cosmos 1943 3.5 20:23:56 10° S 20:29:11 42° ESE 20:34:27 10° NE
Helios 1B rocket 2.3 20:25:24 10° NNE 20:29:31 64° ESE 20:33:35 10° S
Resurs 01 Rocket 1.5 20:25:28 10° SSE 20:29:55 81° ENE 20:34:23 10° N
SL-8 R/B 3.6 20:26:12 10° WSW 20:30:59 82° SSE 20:34:18 20° ENE
CENTAUR R/B 2.6 20:25:39 10° S 20:31:24 50° ESE 20:37:52 10° NE
Gbstr 26 Del rocket 3.4 20:28:59 10° SSW 20:33:12 50° SE 20:36:27 21° ENE
Cosmos 1953 3.1 20:32:10 10° SSW 20:36:04 55° W 20:39:58 10° N
Cosmos 1603 3.9 20:30:41 10° SSW 20:36:25 76° WNW 20:42:12 10° NNE
ISS -3.5 20:33:13 10° SW 20:36:29 86° SE 20:37:49 33° ENE
BREEZE-M DEB (TANK) 4.1 20:22:55 10° W 20:38:36 70° N 20:41:39 25° E
Cosmos 1420 Rocket 4.2 20:34:00 10° NNW 20:39:19 76° WSW 20:44:37 10° SSE
Cosmos 1733 3.3 20:37:00 10° S 20:40:43 49° E 20:44:29 10° NNE
ERBS 3.9 20:41:23 10° NNW 20:44:13 23° NNE 20:44:31 22° NE
Nadezhda 4 Rocket 4.1 20:41:21 10° N 20:47:39 82° W 20:53:50 10° S
Cosmos 1470 2.6 20:44:00 10° S 20:47:52 76° E 20:51:46 10° NNE
Cosmos 1674 2.6 20:44:01 10° N 20:47:56 90° ENE 20:51:28 12° S
GP-B 3.3 20:47:39 10° NNE 20:51:56 45° E 20:52:57 38° SE
Cosmos 2058 3.9 20:48:57 10° NNE 20:51:47 28° NE 20:51:47 28° NE
Spot 2 Rocket 4.0 20:48:57 10° S 20:53:54 60° WSW 20:58:54 10° NNW
Abrixas 3.0 20:52:52 10° W 20:55:48 52° NNW 20:56:04 50° N
Cosmos 1092 Rocket 3.9 20:51:27 10° N 20:57:41 87° E 21:03:49 10° S
Cosmos 1048 Rocket 4.3 20:53:39 10° SSW 20:58:56 70° WNW 21:04:10 10° NNE
Cosmos 2151 2.9 20:56:54 10° N 21:01:05 59° E 21:01:36 54° ESE
ATLAS 5 CENTAUR R/B 3.7 20:58:21 10° WSW 21:02:39 30° NW 21:07:17 10° NNE
Envisat 4.1 21:05:37 28° NE 21:05:37 28° NE 21:09:15 10° N
Cosmos 2221 4.3 21:09:42 18° NNE 21:09:42 18° NNE 21:11:01 10° NNE
Cosmos 2142 Rocket 4.4 21:01:19 10° S 21:07:39 73° E 21:14:02 10° NNE
Cosmos 1655 Rocket 4.0 21:01:55 10° N 21:08:01 54° ENE 21:10:10 38° SE
Cosmos 2026 Rocket 3.9 21:02:36 10° N 21:08:40 61° E 21:11:21 34° SE
Cosmos 1174 3.9 21:05:59 10° SW 21:10:40 80° WNW 21:12:05 39° NNE
Cosmos 158 Rocket 3.7 21:05:50 10° SSW 21:10:43 88° WNW 21:15:37 10° NNE
Meteor 1-16 Rocket 4.0 21:06:32 10° S 21:11:45 62° E 21:17:01 10° NNE
Cosmos 1634 Rocket 3.9 21:08:24 10° S 21:14:38 86° E 21:20:52 10° N
USA 215 3.1 21:09:20 15° NE 21:14:52 82° SE 21:21:25 10° SW
CZ-4B DEB 4.1 21:22:25 37° WSW 21:22:41 37° W 21:25:46 10° NNW
Meteor 1-11 4.1 21:17:48 10° N 21:23:38 78° E 21:25:15 49° SSE
Meteor 2-20 4.5 21:24:04 10° N 21:30:07 56° ENE 21:30:11 56° E
ERS-1 Rocket 3.4 21:35:50 49° NNE 21:35:50 49° NNE 21:39:47 10° N
Cosmos 1110 Rocket 4.4 21:44:33 10° NNW 21:49:46 59° WSW 21:50:19 56° SW
BREEZE-M DEB (TANK) 4.5 21:53:41 10° W 22:02:24 45° NNW 22:02:54 43° N
Cosmos 1943 Rocket 2.4 21:57:40 10° NNW 22:02:44 65° WNW 22:02:44 65° WNW
Cosmos 2251 Rocket 4.4 22:03:36 10° SW 22:08:37 47° WNW 22:13:43 10° N
Cosmos 2369 Rocket 4.0 22:06:04 10° NW 22:10:41 26° WSW 22:12:52 21° SW
CENTAUR R/B 3.9 22:16:29 10° WSW 22:22:16 37° NW 22:28:44 10° NNE
USA 215 4.3 22:56:44 38° N 22:57:31 39° NNW 23:03:28 10° W
